Regional Weather Roundup
Issued by NWS

Home | Current Version | Previous Version | Text Only | Print | Product List | Glossary Off
Versions: 1 2 3 4 5 6 7 8 9 10 11 12 13 14 15 16 17 18 19 20 21 22 23 24 25 26 27 28 29 30 31 32 33 34 35 36 37 38 39 40 41 42 43 44 45 46 47 48 49 50

000
ASUS43 KTOP 011608
RWRKS

WEATHER ROUNDUP FOR KANSAS
NATIONAL WEATHER SERVICE GOODLAND KS
1100 AM CDT MON SEP 01 2014

NOTE:  "FAIR" INDICATES FEW OR NO CLOUDS BELOW 12,000 FEET WITH NO
SIGNIFICANT WEATHER AND/OR OBSTRUCTIONS TO VISIBILITY.

KSZ001>006-013>018-027>032-041>047-011700-
NORTHWEST KANSAS

CITY           SKY/WX    TMP DP  RH WIND       PRES   REMARKS
GOODLAND       CLOUDY    66  51  58 NW7       30.05R
HAYS           PTSUNNY   70  57  64 NE9       29.96S
HILL CITY      MOSUNNY   71  55  56 N14       29.97R
RUSSELL        CLOUDY    69  60  73 N9        29.94R
$$

KSZ061>065-074>080-084>089-011700-
SOUTHWEST KANSAS

CITY           SKY/WX    TMP DP  RH WIND       PRES   REMARKS
DODGE CITY     CLOUDY    70  61  73 NE14      29.94S
ELKHART          N/A     72  51  47 N13         N/A
GARDEN CITY    PTSUNNY   73  56  54 NE12      29.97R
GREAT BEND     CLOUDY    70  63  78 NE6       29.94R
LIBERAL        MOSUNNY   72  59  64 N17       29.96R
PRATT          CLOUDY    72  63  73 E10       29.92R
$$

KSZ066>073-081>083-090>101-011700-
SOUTHEAST KANSAS

CITY           SKY/WX    TMP DP  RH WIND       PRES   REMARKS
CHANUTE        MOSUNNY   74  64  71 S16       29.91S
COFFEYVILLE    CLOUDY    73  65  75 SE15G23   29.93R
HUTCHINSON     CLOUDY    75  62  64 E9        29.92R
MEDICINE LODGE   N/A     78  67  68 SE13G24   29.85S
NEWTON         CLOUDY    70  61  73 SE7       29.96R
PARSONS        CLOUDY    73  64  73 S10G23    29.93S
WICHITA INTL   CLOUDY    77  63  61 SE18G24   29.88S
WICHITA JABRA  CLOUDY    75  63  66 SE15      29.89S
WICHITA MCCONL PTSUNNY   77  65  66 SE16      29.89S
WINFIELD       MOSUNNY   74  65  73 SE18G29   29.89S
$$

KSZ007>012-019>026-033>040-048>060-102>105-011700-
NORTHEAST KANSAS

CITY           SKY/WX    TMP DP  RH WIND       PRES   REMARKS
CONCORDIA      MOSUNNY   71  63  75 NE3       29.91R
EMPORIA        PTSUNNY   72  65  78 S17       29.92S
LAWRENCE       MOSUNNY  N/A N/A N/A SW9       29.90R
MANHATTAN      SUNNY     74  66  76 SW8       29.91R
OLATHE IND     MOSUNNY   73  65  75 W12       29.90R
OLATHE EXE     MOSUNNY   73  65  75 W10G17    29.89R
SALINA         PTSUNNY   77  66  68 VRB6      29.92R
TOPEKA BILLARD MOSUNNY   77  66  68 W10       29.91R
TOPEKA FORBES  PTSUNNY   75  65  70 W12       29.91R
$$


USA.gov is the U.S. government's official web portal to all federal, state and local government web resources and services.